Ypsilanti, MI

10:22 PM EDT on May 28, 2017 (GMT -0400)
Willow Run

Weather History for KYIP - July, 2014

Change the Weather History Date:

Thursday, July 3, 2014

  Actual Average Record
Temperature  
Mean Temperature 68 °F -  
Max Temperature 77 °F 82 °F 98 °F (1949)
Min Temperature 61 °F 62 °F 51 °F (1971)
Cooling Degree Days 3    
Growing Degree Days 18 (Base 50)    
Moisture  
Dew Point 55 °F    
Average Humidity 67    
Maximum Humidity 81    
Minimum Humidity 38    
Precipitation  
Precipitation 0.01 in - - ()
Sea Level Pressure  
Sea Level Pressure 30.01 in    
Wind  
Wind Speed 7 mph (WNW)    
Max Wind Speed 17 mph    
Max Gust Speed 23 mph    
Visibility 9 miles    
Events Rain    
Averages and records for this station are not official NWS values.
T = Trace of Precipitation, MM = Missing Value Source: NWS Daily Summary

Daily Weather History Graph

Daily Weather History Graph

Search for Another Location

Airport or City:

Trip Planner

Search our weather history database for the weather conditions in past years. The results will help you decide how hot, cold, wet, or windy it might be!

Date:

Astronomy

Jul. 03, 2014 Rise Set
Actual Time 6:02 AM EDT 9:13 PM EDT
Civil Twilight 5:28 AM EDT 9:48 PM EDT
Nautical Twilight 4:43 AM EDT 10:32 PM EDT
Astronomical Twilight 3:50 AM EDT 11:25 PM EDT
Moon 12:07 PM EDT (7/3) 12:00 AM EDT (7/3)
Length of Visible Light 16h 20m
Length of Day
15h 11m
Waxing Crescent, 33% of the Moon is Illuminated
Jul 3
Waxing Crescent
Jul 5
First Quarter
Jul 12
Full
Jul 18
Last Quarter
Jul 26
New

Hourly Weather History & Observations

Time (EDT) Temp. Dew Point Humidity Pressure Visibility Wind Dir Wind Speed Gust Speed Precip Events Conditions
12:53 AM 69.1 °F 55.9 °F 63% 29.94 in 10.0 mi NW 4.6 mph - N/A   Overcast
1:53 AM 66.9 °F 57.0 °F 70% 29.94 in 10.0 mi WNW 3.5 mph - N/A   Overcast
2:53 AM 68.0 °F 57.0 °F 68% 29.94 in 10.0 mi WNW 4.6 mph - N/A   Overcast
3:53 AM 66.9 °F 57.9 °F 73% 29.94 in 10.0 mi WNW 3.5 mph - N/A   Overcast
4:53 AM 66.9 °F 57.9 °F 73% 29.92 in 10.0 mi Calm Calm - N/A   Overcast
5:53 AM 66.9 °F 59.0 °F 76% 29.93 in 10.0 mi SW 4.6 mph - N/A   Overcast
6:53 AM 66.0 °F 57.9 °F 75% 29.94 in 10.0 mi West 4.6 mph - 0.00 in   Overcast
7:53 AM 66.9 °F 59.0 °F 76% 29.95 in 10.0 mi WSW 6.9 mph - N/A   Overcast
8:35 AM 66.9 °F 57.9 °F 73% 29.98 in 10.0 mi West 9.2 mph - 0.00 in Rain Light Rain
8:53 AM 66.0 °F 59.0 °F 78% 29.97 in 7.0 mi West 8.1 mph - 0.00 in Rain Light Rain
9:02 AM 66.0 °F 59.0 °F 78% 29.98 in 5.0 mi West 9.2 mph - 0.00 in Rain Light Rain
9:21 AM 64.9 °F 59.0 °F 81% 29.99 in 4.0 mi West 11.5 mph - 0.00 in Rain Light Rain
9:24 AM 64.9 °F 59.0 °F 81% 29.99 in 2.5 mi West 10.4 mph - 0.01 in Rain Light Rain
9:38 AM 62.1 °F 55.9 °F 80% 30.00 in 1.8 mi NW 17.3 mph 23.0 mph 0.03 in Rain Light Rain
9:43 AM 62.1 °F 55.9 °F 80% 30.00 in 3.0 mi NNW 16.1 mph - 0.03 in Rain Light Rain
9:50 AM 62.6 °F 55.4 °F 77% 30.00 in 5.0 mi NW 12.7 mph - 0.03 in Rain Light Rain
10:08 AM 63.0 °F 55.9 °F 78% 30.00 in 10.0 mi NW 10.4 mph - 0.00 in   Overcast
10:35 AM 61.0 °F 54.0 °F 78% 30.01 in 10.0 mi NNW 11.5 mph - 0.01 in   Overcast
10:53 AM 63.0 °F 54.0 °F 72% 30.00 in 10.0 mi NW 13.8 mph - 0.01 in   Overcast
11:53 AM 61.0 °F 53.1 °F 75% 30.03 in 10.0 mi NW 12.7 mph - N/A   Overcast
12:53 PM 62.1 °F 51.1 °F 67% 30.05 in 10.0 mi NW 9.2 mph - N/A   Overcast
1:08 PM 61.0 °F 51.1 °F 70% 30.07 in 10.0 mi NW 8.1 mph - N/A   Overcast
1:53 PM 66.9 °F 53.1 °F 61% 30.06 in 10.0 mi WNW 10.4 mph - N/A   Overcast
2:24 PM 71.1 °F 51.1 °F 49% 30.07 in 10.0 mi NW 11.5 mph 20.7 mph N/A   Overcast
3:53 PM 73.9 °F 48.0 °F 40% 30.05 in 10.0 mi NNW 11.5 mph 21.9 mph N/A   Partly Cloudy
4:53 PM 75.9 °F 48.9 °F 38% 30.05 in 10.0 mi NW 13.8 mph - N/A   Clear
5:53 PM 75.9 °F 50.0 °F 40% 30.05 in 10.0 mi NNW 11.5 mph - N/A   Partly Cloudy
6:53 PM 75.9 °F 48.9 °F 38% 30.06 in 10.0 mi NW 9.2 mph - N/A   Clear
7:53 PM 75.0 °F 51.1 °F 43% 30.07 in 10.0 mi NNW 8.1 mph - N/A   Clear
8:53 PM 70.0 °F 53.1 °F 55% 30.09 in 10.0 mi NNW 5.8 mph - N/A   Clear
9:53 PM 66.9 °F 54.0 °F 63% 30.12 in 10.0 mi Calm Calm - N/A   Clear
10:53 PM 64.0 °F 55.0 °F 73% 30.14 in 10.0 mi Calm Calm - N/A   Mostly Cloudy
11:53 PM 62.1 °F 55.0 °F 78% 30.14 in 10.0 mi Calm Calm - N/A   Clear